TimeEDT,TemperatureF,Dew PointF,Humidity,Sea Level PressureIn,VisibilityMPH,Wind Direction,Wind SpeedMPH,Gust SpeedMPH,PrecipitationIn,Events,Conditions,WindDirDegrees,DateUTC
12:53 AM,63.0,48.0,58,29.76,10.0,SW,3.5,-,N/A,,Mostly Cloudy,230,2012-06-04 04:53:00
1:53 AM,60.1,48.9,67,29.75,10.0,Calm,Calm,-,N/A,,Clear,0,2012-06-04 05:53:00
2:53 AM,60.1,46.9,62,29.76,10.0,Calm,Calm,-,N/A,,Clear,0,2012-06-04 06:53:00
3:53 AM,59.0,48.0,67,29.74,10.0,Calm,Calm,-,N/A,,Clear,0,2012-06-04 07:53:00
4:53 AM,55.0,48.9,80,29.73,10.0,Calm,Calm,-,N/A,,Clear,0,2012-06-04 08:53:00
5:53 AM,55.4,48.2,77,29.76,10.0,SSW,3.5,-,N/A,,Clear,210,2012-06-04 09:53:00
6:53 AM,55.0,48.9,80,29.76,10.0,Calm,Calm,-,N/A,,Clear,0,2012-06-04 10:53:00
7:53 AM,60.1,50.0,69,29.76,10.0,Calm,Calm,-,N/A,,Scattered Clouds,0,2012-06-04 11:53:00
8:53 AM,62.1,48.0,60,29.78,10.0,Variable,3.5,-,N/A,,Mostly Cloudy,0,2012-06-04 12:53:00
9:53 AM,64.0,46.0,52,29.77,10.0,Variable,3.5,-,N/A,,Scattered Clouds,0,2012-06-04 13:53:00
10:53 AM,66.0,48.0,52,29.77,10.0,NNW,5.8,-,N/A,,Clear,340,2012-06-04 14:53:00
11:53 AM,66.9,48.0,51,29.76,10.0,NW,5.8,-,N/A,,Overcast,310,2012-06-04 15:53:00
12:53 PM,68.0,48.0,49,29.76,10.0,Variable,6.9,-,N/A,,Mostly Cloudy,0,2012-06-04 16:53:00
1:53 PM,69.1,46.0,44,29.77,10.0,Variable,5.8,16.1,N/A,,Mostly Cloudy,0,2012-06-04 17:53:00
2:53 PM,70.0,45.0,41,29.76,10.0,NW,9.2,-,N/A,,Scattered Clouds,310,2012-06-04 18:53:00
3:53 PM,70.0,46.9,44,29.76,10.0,North,9.2,-,N/A,,Overcast,350,2012-06-04 19:53:00
4:53 PM,66.0,48.9,54,29.78,10.0,North,8.1,-,N/A,,Overcast,360,2012-06-04 20:53:00
5:53 PM,68.0,48.0,49,29.77,10.0,NNW,9.2,-,N/A,,Mostly Cloudy,330,2012-06-04 21:53:00
6:53 PM,66.9,48.0,51,29.77,10.0,NW,4.6,-,N/A,,Scattered Clouds,310,2012-06-04 22:53:00
7:53 PM,63.0,46.9,56,29.79,10.0,North,6.9,-,N/A,,Overcast,10,2012-06-04 23:53:00
8:53 PM,61.0,48.0,62,29.80,10.0,North,4.6,-,N/A,,Mostly Cloudy,360,2012-06-05 00:53:00
9:53 PM,59.0,48.0,67,29.81,10.0,North,8.1,-,N/A,,Scattered Clouds,350,2012-06-05 01:53:00
10:53 PM,57.9,48.9,72,29.82,10.0,North,4.6,-,N/A,,Mostly Cloudy,10,2012-06-05 02:53:00
11:53 PM,57.9,48.9,72,29.82,10.0,North,6.9,-,N/A,,Overcast,10,2012-06-05 03:53:00